USA 271

Last updated on Mon Feb 23 2026 00:02:50 GMT+0000 (Coordinated Universal Time)

1 41745U 16052B 26051.81367943 -.00000346 00000+0 00000+0 0 9992 2 41745 3.8712 78.7558 0001639 331.9763 161.1961 1.00119522 26751
UTC large
Height (km)
Speed (km/s)
/
Latitude / Longitude
Inclination (degrees)
Orbital Period (minutes)
Azimuth
Elevation
Range (km)
Doppler Factor

Next 0 passes for location: London (51.5072 / 0.1276)

Sorry there are no passes over London.